Location: Izdebno
(52.6670°N, 16.2170°E)
Time: 22:46:50
(UTC+01:00)

Vanguard 1 Rocket - All Passes

Search period start: 20 February 2024 00:00
Search period end: 01 March 2024 00:00
Orbit: 654 x 4218 km, 34.3° (Epoch: 19 February)

Date Brightness Start Highest point End Pass type
(mag) Time Alt. Az. Time Alt. Az. Time Alt. Az.
20 Feb - 09:00:18 10° SSW 09:08:33 19° S 09:14:16 10° SE daylight
20 Feb - 11:27:06 10° SW 11:33:06 19° SSW 11:37:25 10° SSE daylight
21 Feb - 07:47:53 10° SSW 07:56:33 17° SSE 08:02:47 10° SE daylight
21 Feb - 10:13:31 10° SW 10:21:45 22° S 10:27:14 10° SE daylight
21 Feb - 12:42:09 10° SW 12:45:34 13° SSW 12:48:22 10° S daylight
22 Feb - 06:36:46 10° S 06:44:14 14° SSE 06:50:07 10° SE daylight
22 Feb - 08:59:58 10° SW 09:10:03 23° S 09:16:37 10° SE daylight
22 Feb - 11:27:59 10° WSW 11:34:34 20° SSW 11:39:11 10° SSE daylight
23 Feb - 07:46:44 10° SSW 07:57:58 22° SSE 08:05:28 10° ESE daylight
23 Feb - 10:13:58 10° SW 10:23:15 24° S 10:29:11 10° SE daylight
23 Feb - 12:43:45 10° SW 12:46:54 13° SSW 12:49:33 10° S daylight
24 Feb - 06:34:20 10° SSW 06:45:33 19° SSE 06:53:33 10° ESE daylight
24 Feb - 08:59:55 10° SW 09:11:30 27° S 09:18:42 10° SE daylight
24 Feb - 11:28:58 10° WSW 11:35:58 20° SSW 11:40:49 10° SSE daylight
25 Feb - 05:23:43 10° S 05:32:53 15° SSE 05:40:10 10° ESE visible
25 Feb - 07:46:04 10° SW 07:59:20 26° S 08:07:45 10° ESE daylight
25 Feb - 10:14:33 10° WSW 10:24:39 26° SSW 10:30:59 10° SE daylight
25 Feb - 12:45:40 10° SW 12:48:08 11° SW 12:50:17 10° SSW daylight
26 Feb - 06:32:50 10° SSW 06:46:48 24° SSE 06:56:11 10° ESE daylight
26 Feb - 09:00:04 10° SW 09:12:53 29° S 09:20:36 10° SE daylight
26 Feb - 11:30:02 10° WSW 11:37:16 20° SSW 11:42:16 10° SSE daylight
27 Feb - 05:20:51 10° S 05:33:59 20° SSE 05:43:40 10° ESE visible
27 Feb - 07:45:43 10° SW 08:00:40 30° S 08:09:47 10° ESE daylight
27 Feb - 10:15:13 10° WSW 10:25:59 27° SSW 10:32:39 10° SE daylight
28 Feb - 04:11:18 10° SSE 04:21:03 14° SE 04:29:11 10° ESE visible
28 Feb - 06:31:52 10° SSW 06:48:00 28° SSE 06:58:25 10° ESE daylight
28 Feb - 09:00:22 10° WSW 09:14:12 32° S 09:22:24 10° SE daylight
28 Feb - 11:31:12 10° WSW 11:38:27 19° SSW 11:43:33 10° S daylight
29 Feb - 05:19:02 10° SSW 05:35:01 25° SSE 05:46:18 10° ESE visible
29 Feb - 07:45:36 10° SW 08:01:54 34° S 08:11:40 10° ESE daylight
29 Feb - 10:15:57 10° WSW 10:27:13 27° SSW 10:34:12 10° SSE daylight
